STARLINK-4710, 53799

Orbit data source: Space-Track

STARLINK-4710, 53799 is a payload satellite owned by SpaceX/Seattle (US) in LEO that was launched on Sun, 11 Sep 2022 UTC via an FALCON 9 launch vehicle from the Air Force Eastern Test Range (AFETR). Payload-class satellites include a variety of spacecraft equipped with specific instruments for various scientific and technological missions. These include communications satellites like Starlink; space stations such as the ISS; scientific satellites like the Hubble; Earth observation satellites from companies like Planet Labs, Umbra, and HawkEye 360; GPS; miniature CubeSats for education and research; and military/defense satellites.

Loading next visibility...
Identifier
53799, 2022-111AC
Orbit
LEO
Country
Flag of USUS
Related business
Manufacturer
SpaceX/Seattle
Mission
Operational Commercial Communications
Bus & Motor
STARLINK, Unknown motor
Mass
305 kg wet, ~290 kg dry
Launch date (UTC)
2022-09-11 (4 years ago)
Launch vehicle
FALCON 9
Launch site
Air Force Eastern Test Range (AFETR)
Object type
Payload
Rocket body
Debris
Shape & HBR
Box + 1 Pan, 10.1 m
Radar Cross Section
13.562 m², Large (>1 m²)

Expand to show TLE details & history
Last TLE update: 14 hours ago

TLE from 14 hours ago
0 STARLINK-4710
1 53799U 22111AC  26236.36129761 -.00000203  00000-0  51700-5 0  9998
2 53799  53.1586 220.7779 0001193  82.6315 277.4823 15.33549410219275
Epoch: 2026-08-24T08:40Z
TLE epoch observation values (Epoch: 2026-08-24T08:40:16.113Z)
Latitude
-0°
Longitude
118.06666°
Altitude
466.027 km
Speed
7.635 km/s
True Right ascension
14h 43m 06s
True Declination
0° 00' 00"
Sunlit
Object was in daylight at epoch
Visualization orbit readout
Latitude
Unknown
Longitude
Unknown
Altitude
Unknown
Speed
Unknown
Apparent Right ascension
Unknown
Apparent Declination
Unknown
Sunlit
N/A
Visualization observer readout
Local Sidereal Time
13:47:29
Azimuth
Unknown
Elevation
Unknown
Doppler factor
Unknown
Orbital elements
Apogee altitude
466.306 km
Perigee altitude
464.673 km
Semi-major axis
6,843.627 km
Eccentricity
0.00012
Inclination
53.1586°
RAAN
220.7779°
Arg. of periapsis
82.6315°
True anomaly
277.46875°
Mean anomaly
277.4823°
Eccentric anomaly
277.47552°
Mean motion
3.83366 °/min
Orbital period
93.91 mins
BSTAR
0.00000517
Loading maneuver chart data...
Computing Atmospheric mass density...
Loading historical data...
Loading historical data...
Loading historical data...
Loading historical data...
Loading historical data...
Loading historical data...
Loading historical data...

Documentation

Showing up to 5 results
|